Location: Dammartin
(48.9032°N, 1.6195°E)
Time: 16:20:36
(UTC+00:00)

SL-08 ROCKET BODY - Pass Details

Date: 03 February 2023
Orbit: 896 x 962 km, 83.0° (Epoch: 30 March)

Event Time Altitude Azimuth Distance (km) Brightness Sun altitude
Rises 17:29:46 0° 353° (N) 3,551 7.3 -6.3°
Reaches altitude 10° 17:32:19 10° 358° (N) 2,598 6.6 -6.7°
Maximum altitude 17:38:07 56° 76° (ENE) 1,066 4.4 -7.7°
Drops below altitude 10° 17:43:49 10° 154° (SSE) 2,565 6.6 -8.6°
Sets 17:46:19 0° 159° (SSE) 3,502 7.4 -8.9°
